Flag for Germany Weather past 2 weeks in Zerbst/Anhalt, Saxony-Anhalt, Germany

Now
60 °F

Overcast.


Feels Like: 60 °F
Forecast: 51 / 61 °F
Wind: 7 mph from West

Location: Magdeburg

Current Time: Oct 20, 2014 at 12:34:09 PM

Latest Report: Oct 20, 2014 at 12:00 PM


Visibility: 28 mi

Pressure: 29.96 "Hg

Humidity: 74%

Dew point: 52 °F

Location of Zerbst/AnhaltLocation

Historic Weather in Zerbst/Anhalt — Graph

°F

Zerbst/Anhalt temperature yesterday

Maximum temperature yesterday: 74 °F (at 3:00 PM)
Minimum temperature yesterday: 51 °F (at 8:00 AM)
Average temperature yesterday: 61 °F

Past Weeks' High & Low Weather Summary

 TemperatureHumidityPressure
High74 °F (Oct 19, 3:00 PM)98% (Oct 11, 7:00 AM)30.21 "Hg (Oct 11, 7:00 AM)
Low48 °F (Oct 16, 3:00 AM)54% (Oct 14, 4:00 PM)29.65 "Hg (Oct 7, 2:00 PM)
Average58 °F85%29.88 "Hg
* Reported Oct 5 10:00 AM — Oct 20 10:00 AM, Zerbst/Anhalt, Weather by CustomWeather, © 2014

Note: Actual official high and low records may vary slightly from our data, if they occured in-between our weather recording intervals... More about our weather records

Advertising

Zerbst/Anhalt weather history for previous 24 hours

 ConditionsComfort  
Time TempWeatherWind HumidityBarometerVisibility
10:00 AM
Oct 20
58 °FOvercast.6 mph75%29.95 "Hg25 mi
9:00 AM57 °FPartly sunny.5 mph78%29.94 "Hg31 mi
8:00 AM56 °FPartly sunny.3 mph82%29.93 "Hg31 mi
7:00 AM56 °FPassing clouds.5 mph82%29.93 "Hg25 mi
4:00 AM59 °FOvercast.5 mph83%29.94 "Hg22 mi
3:00 AM59 °FPassing clouds.3 mph85%29.94 "Hg31 mi
2:00 AM59 °FOvercast.2 mph87%29.93 "Hg34 mi
1:00 AM58 °FOvercast.2 mph89%29.94 "Hg40 mi
12:00 AM59 °FOvercast.5 mph87%29.93 "Hg40 mi
11:00 PM
Oct 19
57 °FRain. Overcast.7 mph90%29.95 "Hg3 mi
10:00 PM65 °FPassing clouds.6 mph78%29.89 "Hg17 mi
9:00 PM66 °FPassing clouds.6 mph77%29.89 "Hg22 mi
8:00 PM66 °FPassing clouds.6 mph76%29.89 "Hg25 mi
7:00 PM67 °FPassing clouds.6 mph74%29.90 "Hg28 mi
6:00 PM69 °FScattered clouds.3 mph69%29.91 "Hg37 mi
4:00 PM74 °FPassing clouds.6 mph60%29.93 "Hg31 mi
3:00 PM74 °FSunny.6 mph60%29.94 "Hg31 mi
2:00 PM73 °FPassing clouds.6 mph59%29.96 "Hg31 mi
1:00 PM71 °FPassing clouds.3 mph69%29.99 "Hg28 mi
12:00 PM68 °FPassing clouds.3 mph72%30.01 "Hg28 mi
Weather by CustomWeather, © 2014

See weather overviewHow to use our weather pages